Grand Island, NE

4:50 PM CDT on July 24, 2017 (GMT -0500)
Central Nebraska Regional

Weather History for KGRI - March, 2013

Change the Weather History Date:

Sunday, March 31, 2013

  Actual Average Record
Temperature  
Mean Temperature 47 °F 45 °F  
Max Temperature 63 °F 58 °F 90 °F (1978)
Min Temperature 31 °F 32 °F 10 °F (1899)
Degree Days  
Heating Degree Days 18 20  
Month to date heating degree days 888 796  
Since 1 July heating degree days 5357 5557  
Cooling Degree Days 0 0  
Month to date cooling degree days 0 0  
Year to date cooling degree days 0 0  
Moisture  
Dew Point 34 °F    
Average Humidity 60    
Maximum Humidity 92    
Minimum Humidity 27    
Precipitation  
Precipitation T in 0.08 in 1.13 in (1959)
Month to date precipitation 1.64 1.80  
Year to date precipitation 2.77 3.01  
Snow  
Snow 0.00 in 0.20 in 2.50 in (1936)
Month to date snowfall 6.2 5.4  
Since 1 July snowfall 27.6 27.5  
Snow Depth 0.00 in    
Sea Level Pressure  
Sea Level Pressure 30.04 in    
Wind  
Wind Speed 13 mph (NNW)    
Max Wind Speed 33 mph    
Max Gust Speed 39 mph    
Visibility 10 miles    
Events Rain    
T = Trace of Precipitation, MM = Missing Value Source: NWS Daily Summary

Daily Weather History Graph

Daily Weather History Graph

Search for Another Location

Airport or City:

Trip Planner

Search our weather history database for the weather conditions in past years. The results will help you decide how hot, cold, wet, or windy it might be!

Date:

Astronomy

Mar. 31, 2013 Rise Set
Actual Time 7:17 AM CDT 7:57 PM CDT
Civil Twilight 6:50 AM CDT 8:25 PM CDT
Nautical Twilight 6:17 AM CDT 8:57 PM CDT
Astronomical Twilight 5:43 AM CDT 9:31 PM CDT
Moon 12:06 AM CDT (3/31) 10:04 AM CDT (3/31)
Length of Visible Light 13h 35m
Length of Day
12h 39m
Waning Gibbous, 77% of the Moon is Illuminated
Mar 31
Waning Gibbous
Apr 2
Last Quarter
Apr 10
New
Apr 18
First Quarter
Apr 25
Full

Hourly Weather History & Observations

Time (CDT) Temp. Windchill Dew Point Humidity Pressure Visibility Wind Dir Wind Speed Gust Speed Precip Events Conditions
12:53 AM 48.0 °F - 44.1 °F 86% 30.02 in 10.0 mi West 8.1 mph - 0.00 in Rain Light Rain
1:53 AM 45.0 °F 40.1 °F 42.1 °F 90% 30.03 in 10.0 mi West 9.2 mph - 0.00 in   Partly Cloudy
2:53 AM 44.1 °F 38.6 °F 39.9 °F 85% 30.03 in 10.0 mi West 10.4 mph - N/A   Clear
3:53 AM 43.0 °F 36.0 °F 37.9 °F 82% 30.02 in 10.0 mi WNW 13.8 mph - N/A   Clear
4:53 AM 42.1 °F 34.9 °F 37.0 °F 82% 30.02 in 10.0 mi NW 13.8 mph - N/A   Clear
5:53 AM 41.0 °F 33.5 °F 36.0 °F 82% 30.03 in 10.0 mi NW 13.8 mph - N/A   Clear
6:53 AM 39.9 °F 32.9 °F 35.1 °F 83% 30.05 in 10.0 mi NW 11.5 mph - N/A   Clear
7:53 AM 39.0 °F 31.8 °F 34.0 °F 82% 30.07 in 10.0 mi NW 11.5 mph - N/A   Clear
8:53 AM 42.1 °F 35.2 °F 35.1 °F 76% 30.07 in 10.0 mi NNW 12.7 mph - N/A   Clear
9:53 AM 46.0 °F 39.6 °F 34.0 °F 63% 30.06 in 10.0 mi NNW 15.0 mph - N/A   Clear
10:53 AM 50.0 °F - 30.9 °F 48% 30.06 in 10.0 mi NNW 15.0 mph - N/A   Clear
11:53 AM 54.0 °F - 30.0 °F 40% 30.05 in 10.0 mi NW 17.3 mph 21.9 mph N/A   Unknown
12:53 PM - - - N/A% 30.03 in - North - - N/A   Unknown
1:53 PM 57.9 °F - 28.9 °F 33% 30.01 in 10.0 mi NNW 11.5 mph 17.3 mph N/A   Clear
2:53 PM 60.1 °F - 28.0 °F 30% 29.99 in 10.0 mi Variable 4.6 mph - N/A   Clear
3:53 PM 62.1 °F - 28.0 °F 28% 29.96 in 10.0 mi SW 8.1 mph - N/A   Clear
4:53 PM 61.0 °F - 27.0 °F 27% 29.94 in 10.0 mi Variable 3.5 mph - N/A   Partly Cloudy
5:53 PM 61.0 °F - 30.0 °F 31% 29.91 in 10.0 mi SSE 4.6 mph - N/A   Overcast
6:53 PM 59.0 °F - 33.1 °F 38% 29.92 in 10.0 mi SE 5.8 mph - N/A   Overcast
7:53 PM 55.9 °F - 37.9 °F 51% 29.96 in 10.0 mi NNE 8.1 mph - N/A   Overcast
8:53 PM 45.0 °F 36.4 °F 30.0 °F 56% 30.04 in 10.0 mi NE 23.0 mph 32.2 mph 0.00 in Rain Light Rain
9:53 PM 39.0 °F 28.0 °F 34.0 °F 82% 30.10 in 10.0 mi NE 25.3 mph 34.5 mph 0.00 in   Overcast
10:36 PM 37.4 °F 27.2 °F 33.8 °F 87% 30.12 in 10.0 mi NE 19.6 mph - 0.00 in Rain Light Rain
10:53 PM 36.0 °F 26.3 °F 34.0 °F 93% 30.15 in 10.0 mi NE 16.1 mph - 0.00 in   Overcast
11:24 PM 35.6 °F 24.2 °F 32.0 °F 87% 30.14 in 10.0 mi NNE 21.9 mph 28.8 mph N/A   Overcast
11:38 PM 35.6 °F 24.5 °F 30.2 °F 81% 30.15 in 10.0 mi NNE 20.7 mph - N/A   Overcast
11:53 PM 35.1 °F 24.5 °F 32.0 °F 89% 30.17 in 10.0 mi NE 18.4 mph - N/A   Overcast